Weather History for Silver Bay, MN

Change the Weather History Date:

Tuesday, January 22, 2013

  Actual Average Record
Temperature  
Mean Temperature -10 °F -  
Max Temperature 5 °F 18 °F 32 °F (1997)
Min Temperature -25 °F 0 °F -25 °F (2013)
Degree Days  
Heating Degree Days 75    
Moisture  
Dew Point -23 °F    
Average Humidity 55    
Maximum Humidity 69    
Minimum Humidity 36    
Precipitation  
Precipitation 0.00 in - - ()
Sea Level Pressure  
Sea Level Pressure 30.16 in    
Wind  
Wind Speed 2 mph (WNW)    
Max Wind Speed 7 mph    
Max Gust Speed -    
Visibility 10 miles    
Events      
Averages and records for this station are not official NWS values.
T = Trace of Precipitation, MM = Missing Value Source: NWS Daily Summary

Daily Weather History Graph

Daily Weather History Graph

Search for Another Location

Airport:

Trip Planner

Search our weather history database for the weather conditions in past years. The results will help you decide how hot, cold, wet, or windy it might be!

Date:

Astronomy

Jan. 22, 2013 Rise Set
Actual Time 7:42 AM CST 4:53 PM CST
Civil Twilight 7:08 AM CST 5:26 PM CST
Nautical Twilight 6:30 AM CST 6:04 PM CST
Astronomical Twilight 5:54 AM CST 6:40 PM CST
Moon 1:13 PM CST (1/22) 4:06 AM CST (1/22)
Length of Visible Light 10h 18m
Length of Day
9h 11m
Waxing Gibbous, 83% of the Moon is Illuminated
Jan 22
Waxing Gibbous
Jan 26
Full
Feb 3
Last Quarter
Feb 10
New
Feb 17
First Quarter

Hourly Weather History & Observations

Time (CST) Temp. Windchill Dew Point Humidity Pressure Visibility Wind Dir Wind Speed Gust Speed Precip Events Conditions
12:13 AM -18.4 °F -28.9 °F -27.4 °F 63% 30.13 in 10.0 mi NW 3.5 mph - N/A   Overcast
12:33 AM -16.6 °F -29.3 °F -25.6 °F 64% 30.12 in 10.0 mi NW 4.6 mph - N/A   Overcast
12:53 AM -16.6 °F -29.3 °F -25.6 °F 64% 30.13 in 10.0 mi WNW 4.6 mph - N/A   Overcast
1:13 AM -16.6 °F -31.3 °F -27.4 °F 58% 30.13 in 10.0 mi NNW 5.8 mph - N/A   Overcast
1:33 AM -16.6 °F -29.3 °F -27.4 °F 58% 30.14 in 10.0 mi NNW 4.6 mph - N/A   Overcast
1:53 AM -18.4 °F - -27.4 °F 63% 30.15 in 10.0 mi Calm Calm - N/A   Scattered Clouds
2:13 AM -18.4 °F - -29.2 °F 58% 30.16 in 10.0 mi Calm Calm - N/A   Clear
2:33 AM -20.2 °F -30.9 °F -29.2 °F 63% 30.16 in 10.0 mi NW 3.5 mph - N/A   Clear
2:53 AM -20.2 °F -30.9 °F -31.0 °F 58% 30.17 in 10.0 mi NNW 3.5 mph - N/A   Clear
3:13 AM -20.2 °F - -29.2 °F 63% 30.17 in 10.0 mi Calm Calm - N/A   Clear
3:33 AM -20.2 °F -30.9 °F -29.2 °F 63% 30.17 in 10.0 mi NNW 3.5 mph - N/A   Clear
3:53 AM -20.2 °F - -29.2 °F 63% 30.17 in 10.0 mi Calm Calm - N/A   Clear
4:13 AM -22.0 °F - -31.0 °F 63% 30.17 in 10.0 mi Calm Calm - N/A   Clear
4:33 AM -23.8 °F - -32.8 °F 63% 30.18 in 10.0 mi Calm Calm - N/A   Clear
4:53 AM -23.8 °F - -32.8 °F 63% 30.18 in 10.0 mi Calm Calm - N/A   Clear
5:13 AM -25.6 °F - -34.6 °F 63% 30.18 in 10.0 mi Calm Calm - N/A   Clear
5:33 AM -25.6 °F - -34.6 °F 63% 30.19 in 10.0 mi Calm Calm - N/A   Clear
5:53 AM -25.6 °F - -36.4 °F 57% 30.20 in 10.0 mi Calm Calm - N/A   Clear
6:13 AM -25.6 °F - -34.6 °F 63% 30.20 in 10.0 mi Calm Calm - N/A   Clear
6:34 AM -25.6 °F - -34.6 °F 63% 30.20 in 10.0 mi Calm Calm - N/A   Clear
6:53 AM -25.6 °F - -34.6 °F 63% 30.19 in 10.0 mi Calm Calm - N/A   Clear
7:13 AM -25.6 °F - -36.4 °F 57% 30.20 in 10.0 mi Calm Calm - N/A   Clear
7:33 AM -25.6 °F - -34.6 °F 63% 30.19 in 10.0 mi Calm Calm - N/A   Clear
7:53 AM -23.8 °F - -32.8 °F 63% 30.19 in 10.0 mi Calm Calm - N/A   Clear
8:13 AM -22.0 °F - -29.2 °F 69% 30.18 in 10.0 mi Calm Calm - N/A   Clear
8:33 AM -18.4 °F -28.9 °F -27.4 °F 63% 30.18 in 10.0 mi West 3.5 mph - N/A   Clear
8:53 AM -14.8 °F - -25.6 °F 58% 30.20 in 10.0 mi Calm Calm - N/A   Scattered Clouds
9:13 AM -14.8 °F - -25.6 °F 58% 30.20 in 10.0 mi Calm Calm - N/A   Mostly Cloudy
9:33 AM -11.2 °F -23.0 °F -23.8 °F 54% 30.20 in 10.0 mi NNW 4.6 mph - N/A   Scattered Clouds
9:53 AM -9.4 °F -18.6 °F -23.8 °F 49% 30.20 in 10.0 mi WNW 3.5 mph - N/A   Clear
10:14 AM -7.6 °F -18.8 °F -23.8 °F 45% 30.21 in 10.0 mi WNW 4.6 mph - N/A   Clear
10:33 AM -7.6 °F -22.1 °F -23.8 °F 45% 30.20 in 10.0 mi NW 6.9 mph - N/A   Clear
10:53 AM -4.0 °F -12.4 °F -20.2 °F 46% 30.20 in 10.0 mi NNW 3.5 mph - N/A   Clear
11:13 AM -2.2 °F - -22.0 °F 39% 30.20 in 10.0 mi Calm Calm - N/A   Clear
11:33 AM -0.4 °F - -20.2 °F 39% 30.20 in 10.0 mi Calm Calm - N/A   Clear
11:53 AM -0.4 °F -10.4 °F -18.4 °F 43% 30.19 in 10.0 mi West 4.6 mph - N/A   Clear
12:13 PM -0.4 °F -10.4 °F -18.4 °F 43% 30.19 in 10.0 mi West 4.6 mph - N/A   Clear
12:33 PM 1.4 °F -8.3 °F -18.4 °F 39% 30.18 in 10.0 mi WNW 4.6 mph - N/A   Clear
12:53 PM 3.2 °F -6.2 °F -16.6 °F 39% 30.17 in 10.0 mi West 4.6 mph - N/A   Clear
1:13 PM 3.2 °F -7.8 °F -16.6 °F 39% 30.16 in 10.0 mi West 5.8 mph - N/A   Clear
1:33 PM 1.4 °F -8.3 °F -18.4 °F 39% 30.16 in 10.0 mi West 4.6 mph - N/A   Clear
1:53 PM 3.2 °F -6.2 °F -16.6 °F 39% 30.16 in 10.0 mi West 4.6 mph - N/A   Clear
2:13 PM 5.0 °F -2.1 °F -16.6 °F 36% 30.15 in 10.0 mi NW 3.5 mph - N/A   Clear
2:33 PM 3.2 °F -6.2 °F -16.6 °F 39% 30.15 in 10.0 mi West 4.6 mph - N/A   Clear
2:53 PM 3.2 °F -4.2 °F -16.6 °F 39% 30.15 in 10.0 mi WNW 3.5 mph - N/A   Clear
3:13 PM 3.2 °F - -16.6 °F 39% 30.16 in 10.0 mi Calm Calm - N/A   Clear
3:33 PM 1.4 °F -8.3 °F -16.6 °F 43% 30.16 in 10.0 mi WNW 4.6 mph - N/A   Clear
3:53 PM 1.4 °F -8.3 °F -16.6 °F 43% 30.16 in 10.0 mi West 4.6 mph - N/A   Clear
4:13 PM -0.4 °F -8.3 °F -16.6 °F 46% 30.16 in 10.0 mi West 3.5 mph - N/A   Clear
4:34 PM -2.2 °F -14.2 °F -18.4 °F 46% 30.16 in 10.0 mi West 5.8 mph - N/A   Clear
4:53 PM -2.2 °F - -18.4 °F 46% 30.16 in 10.0 mi Calm Calm - N/A   Clear
5:13 PM -4.0 °F - -18.4 °F 50% 30.16 in 10.0 mi Calm Calm - N/A   Clear
5:33 PM -4.0 °F - -18.4 °F 50% 30.16 in 10.0 mi Calm Calm - N/A   Clear
5:53 PM -5.8 °F - -18.4 °F 55% 30.16 in 10.0 mi Calm Calm - N/A   Clear
6:13 PM -5.8 °F - -18.4 °F 55% 30.15 in 10.0 mi Calm Calm - N/A   Clear
6:34 PM -7.6 °F - -18.4 °F 59% 30.15 in 10.0 mi Calm Calm - N/A   Clear
6:53 PM -7.6 °F -16.5 °F -18.4 °F 59% 30.14 in 10.0 mi West 3.5 mph - N/A   Clear
7:13 PM -5.8 °F - -18.4 °F 55% 30.14 in 10.0 mi Calm Calm - N/A   Clear
7:33 PM -5.8 °F - -18.4 °F 55% 30.13 in 10.0 mi Calm Calm - N/A   Clear
7:54 PM -5.8 °F - -18.4 °F 55% 30.12 in 10.0 mi Calm Calm - N/A   Clear
8:13 PM -5.8 °F - -18.4 °F 55% 30.12 in 10.0 mi Calm Calm - N/A   Clear
8:33 PM -7.6 °F - -18.4 °F 59% 30.12 in 10.0 mi Calm Calm - N/A   Clear
8:53 PM -7.6 °F - -18.4 °F 59% 30.12 in 10.0 mi Calm Calm - N/A   Clear
9:14 PM -7.6 °F - -18.4 °F 59% 30.11 in 10.0 mi Calm Calm - N/A   Clear
9:33 PM -9.4 °F - -18.4 °F 65% 30.11 in 10.0 mi Calm Calm - N/A   Clear
9:53 PM -9.4 °F - -20.2 °F 59% 30.11 in 10.0 mi Calm Calm - N/A   Clear
10:13 PM -9.4 °F - -18.4 °F 65% 30.10 in 10.0 mi Calm Calm - N/A   Clear
10:34 PM -9.4 °F - -18.4 °F 65% 30.11 in 10.0 mi Calm Calm - N/A   Clear
10:53 PM -9.4 °F - -18.4 °F 65% 30.10 in 10.0 mi Calm Calm - N/A   Clear
11:13 PM -9.4 °F - -18.4 °F 65% 30.10 in 10.0 mi Calm Calm - N/A   Clear
11:33 PM -9.4 °F - -18.4 °F 65% 30.10 in 10.0 mi Calm Calm - N/A   Clear
11:53 PM -9.4 °F - -18.4 °F 65% 30.09 in 10.0 mi Calm Calm - N/A   Scattered Clouds